| time (UTC) | temp F | wind direction | speed MPH | gust MPH | rain 1hr in | rain 24hr in | rain mn in | humidity % | barometer mb |
| 20260504081927 | 42 | 212 | 0.0 | 0.0 | 0.00 | 0.06 | 0.06 | 96 | 1005.4 |
| 20260504081424 | 42 | 191 | 0.0 | 0.0 | 0.00 | 0.06 | 0.06 | 96 | 1005.3 |
| 20260504080920 | 42 | 199 | 0.0 | 0.0 | 0.00 | 0.06 | 0.06 | 96 | 1005.4 |
| 20260504080417 | 42 | 205 | 0.0 | 0.0 | 0.00 | 0.06 | 0.06 | 96 | 1005.5 |
| 20260504070344 | 43 | 227 | 0.0 | 1.0 | 0.00 | 0.02 | 0.02 | 94 | 1005.7 |
| 20260504050732 | 41 | 209 | 0.0 | 0.0 | 0.00 | 0.00 | 0.00 | 89 | 1006.3 |
| 20260504050229 | 41 | 216 | 0.0 | 0.0 | 0.00 | 0.00 | 0.00 | 89 | 1006.2 |
| 20260504045726 | 41 | 210 | 0.0 | 1.0 | 0.00 | 0.00 | 0.00 | 89 | 1006.2 |
| 20260504045221 | 41 | 265 | 2.0 | 2.0 | 0.00 | 0.00 | 0.00 | 88 | 1006.4 |
| 20260504044719 | 40 | 199 | 0.0 | 0.0 | 0.00 | 0.00 | 0.00 | 88 | 1006.3 |
| 20260504044216 | 40 | 216 | 0.0 | 0.0 | 0.00 | 0.00 | 0.00 | 88 | 1006.4 |
| 20260504043713 | 40 | 238 | 0.0 | 0.0 | 0.00 | 0.00 | 0.00 | 89 | 1006.3 |
| 20260504043210 | 40 | 191 | 0.0 | 0.0 | 0.00 | 0.00 | 0.00 | 88 | 1006.7 |
| 20260504042708 | 40 | 214 | 0.0 | 0.0 | 0.00 | 0.00 | 0.00 | 88 | 1006.6 |
| 20260504042204 | 41 | 212 | 0.0 | 0.0 | 0.00 | 0.00 | 0.00 | 87 | 1006.7 |
| 20260504041659 | 41 | 195 | 0.0 | 0.0 | 0.00 | 0.00 | 0.00 | 86 | 1006.4 |
| 20260504041155 | 41 | 216 | 0.0 | 0.0 | 0.00 | 0.00 | 0.00 | 85 | 1006.6 |
| 20260504040653 | 41 | 212 | 0.0 | 0.0 | 0.00 | 0.00 | 0.00 | 84 | 1006.9 |
| 20260504040150 | 41 | 221 | 0.0 | 0.0 | 0.00 | 0.00 | 0.00 | 83 | 1006.9 |
| 20260504035646 | 41 | 203 | 0.0 | 0.0 | 0.00 | 0.00 | 0.00 | 82 | 1006.7 |
| 20260504035143 | 41 | 223 | 0.0 | 0.0 | 0.00 | 0.00 | 0.00 | 81 | 1006.9 |
| 20260504034641 | 41 | 203 | 0.0 | 0.0 | 0.00 | 0.00 | 0.00 | 81 | 1006.9 |
| 20260504034137 | 41 | 216 | 0.0 | 0.0 | 0.00 | 0.00 | 0.00 | 81 | 1006.8 |
| 20260504033635 | 41 | 239 | 1.0 | 1.0 | 0.00 | 0.00 | 0.00 | 80 | 1007.0 |
| 20260504033132 | 41 | 206 | 2.0 | 3.0 | 0.00 | 0.00 | 0.00 | 79 | 1007.0 |
| 20260504032629 | 42 | 213 | 0.0 | 1.0 | 0.00 | 0.00 | 0.00 | 78 | 1006.9 |
| 20260504032126 | 42 | 274 | 0.0 | 0.0 | 0.00 | 0.00 | 0.00 | 75 | 1006.9 |
| 20260504031623 | 43 | 311 | 1.0 | 2.0 | 0.00 | 0.00 | 0.00 | 71 | 1007.1 |
| 20260504031120 | 43 | 296 | 2.0 | 3.0 | 0.00 | 0.00 | 0.00 | 70 | 1007.0 |
| 20260504030616 | 43 | 248 | 0.0 | 0.0 | 0.00 | 0.00 | 0.00 | 68 | 1006.9 |
| 20260504030113 | 43 | 208 | 1.0 | 2.0 | 0.00 | 0.00 | 0.00 | 67 | 1006.8 |
| 20260504025610 | 43 | 328 | 1.0 | 2.0 | 0.00 | 0.00 | 0.00 | 66 | 1006.9 |
| 20260504025107 | 43 | 233 | 0.0 | 1.0 | 0.00 | 0.00 | 0.00 | 64 | 1006.8 |
| 20260504024604 | 42 | 253 | 0.0 | 0.0 | 0.00 | 0.00 | 0.00 | 64 | 1006.9 |
| 20260504024100 | 40 | 216 | 1.0 | 1.0 | 0.00 | 0.00 | 0.00 | 65 | 1007.0 |
| 20260504023557 | 40 | 204 | 0.0 | 0.0 | 0.00 | 0.00 | 0.00 | 64 | 1006.9 |
| 20260504023053 | 40 | 211 | 0.0 | 0.0 | 0.00 | 0.00 | 0.00 | 63 | 1007.0 |
| 20260504022549 | 40 | 211 | 0.0 | 0.0 | 0.00 | 0.00 | 0.00 | 61 | 1007.0 |
| 20260504022046 | 40 | 210 | 0.0 | 0.0 | 0.00 | 0.00 | 0.00 | 63 | 1006.9 |
| 20260504021543 | 39 | 209 | 0.0 | 0.0 | 0.00 | 0.00 | 0.00 | 61 | 1006.9 |
| 20260504021040 | 39 | 210 | 0.0 | 0.0 | 0.00 | 0.00 | 0.00 | 62 | 1007.0 |
| 20260504020537 | 39 | 210 | 0.0 | 0.0 | 0.00 | 0.00 | 0.00 | 61 | 1007.0 |
| 20260504020033 | 39 | 207 | 0.0 | 0.0 | 0.00 | 0.00 | 0.00 | 62 | 1007.0 |
| 20260504015530 | 39 | 208 | 0.0 | 0.0 | 0.00 | 0.00 | 0.00 | 60 | 1006.9 |
| 20260504015026 | 39 | 208 | 0.0 | 0.0 | 0.00 | 0.00 | 0.00 | 60 | 1007.0 |
| 20260504014522 | 39 | 207 | 0.0 | 0.0 | 0.00 | 0.00 | 0.00 | 60 | 1007.1 |
| 20260504014020 | 39 | 206 | 0.0 | 0.0 | 0.00 | 0.00 | 0.00 | 61 | 1007.0 |
| 20260504013517 | 39 | 207 | 0.0 | 0.0 | 0.00 | 0.00 | 0.00 | 60 | 1007.2 |
| 20260504013014 | 40 | 209 | 0.0 | 0.0 | 0.00 | 0.00 | 0.00 | 61 | 1006.9 |
| 20260504012511 | 40 | 194 | 0.0 | 0.0 | 0.00 | 0.00 | 0.00 | 59 | 1007.0 |
| 20260504012009 | 40 | 209 | 0.0 | 0.0 | 0.00 | 0.00 | 0.00 | 60 | 1007.1 |
| 20260504011506 | 40 | 211 | 0.0 | 0.0 | 0.00 | 0.00 | 0.00 | 59 | 1007.0 |
| 20260504011001 | 40 | 209 | 0.0 | 0.0 | 0.00 | 0.00 | 0.00 | 58 | 1007.2 |
| 20260504010458 | 40 | 205 | 0.0 | 0.0 | 0.00 | 0.00 | 0.00 | 58 | 1007.0 |
| 20260504005953 | 40 | 209 | 0.0 | 0.0 | 0.00 | 0.00 | 0.00 | 59 | 1007.0 |
| 20260504005450 | 40 | 209 | 0.0 | 0.0 | 0.00 | 0.00 | 0.00 | 57 | 1007.0 |
| 20260504004948 | 40 | 205 | 0.0 | 0.0 | 0.00 | 0.00 | 0.00 | 59 | 1006.9 |
| 20260504004446 | 40 | 203 | 0.0 | 0.0 | 0.00 | 0.00 | 0.00 | 58 | 1007.0 |
| 20260504003943 | 40 | 207 | 0.0 | 0.0 | 0.00 | 0.00 | 0.00 | 58 | 1007.0 |
| 20260504003438 | 40 | 202 | 0.0 | 0.0 | 0.00 | 0.00 | 0.00 | 58 | 1007.0 |
| 20260504002935 | 40 | 209 | 0.0 | 0.0 | 0.00 | 0.00 | 0.00 | 57 | 1007.1 |
| 20260504002432 | 41 | 203 | 0.0 | 0.0 | 0.00 | 0.00 | 0.00 | 57 | 1007.0 |
| 20260504001930 | 42 | 201 | 0.0 | 0.0 | 0.00 | 0.00 | 0.00 | 55 | 1006.9 |
| 20260504001427 | 42 | 217 | 0.0 | 0.0 | 0.00 | 0.00 | 0.00 | 50 | 1007.1 |
| 20260504000924 | 42 | 217 | 0.0 | 0.0 | 0.00 | 0.00 | 0.00 | 53 | 1007.1 |
| 20260504000423 | 42 | 205 | 0.0 | 0.0 | 0.00 | 0.00 | 0.00 | 53 | 1006.8 |
| 20260503235918 | 43 | 229 | 0.0 | 1.0 | 0.00 | 0.00 | 0.00 | 49 | 1007.0 |
| 20260503235416 | 44 | 214 | 0.0 | 0.0 | 0.00 | 0.00 | 0.00 | 47 | 1006.8 |
| 20260503234913 | 44 | 217 | 0.0 | 0.0 | 0.00 | 0.00 | 0.00 | 47 | 1006.7 |
| 20260503234411 | 44 | 215 | 1.0 | 1.0 | 0.00 | 0.00 | 0.00 | 45 | 1006.8 |
| 20260503233908 | 44 | 220 | 0.0 | 0.0 | 0.00 | 0.00 | 0.00 | 44 | 1006.8 |
| 20260503233404 | 45 | 220 | 0.0 | 0.0 | 0.00 | 0.00 | 0.00 | 44 | 1006.9 |
| 20260503232901 | 45 | 253 | 1.0 | 2.0 | 0.00 | 0.00 | 0.00 | 41 | 1006.7 |
| 20260503232358 | 46 | 292 | 0.0 | 1.0 | 0.00 | 0.00 | 0.00 | 42 | 1006.9 |
| 20260503231856 | 46 | 271 | 0.0 | 0.0 | 0.00 | 0.00 | 0.00 | 42 | 1006.7 |
| 20260503231353 | 47 | 252 | 1.0 | 2.0 | 0.00 | 0.00 | 0.00 | 42 | 1006.4 |
| 20260503230849 | 47 | 232 | 1.0 | 2.0 | 0.00 | 0.00 | 0.00 | 39 | 1006.7 |
| 20260503230346 | 47 | 243 | 2.0 | 2.0 | 0.00 | 0.00 | 0.00 | 39 | 1006.4 |
| 20260503225844 | 47 | 281 | 0.0 | 1.0 | 0.00 | 0.00 | 0.00 | 39 | 1006.6 |
| 20260503225339 | 48 | 229 | 0.0 | 1.0 | 0.00 | 0.00 | 0.00 | 40 | 1006.4 |
| 20260503224836 | 47 | 242 | 1.0 | 1.0 | 0.00 | 0.00 | 0.00 | 39 | 1006.6 |
| 20260503224333 | 47 | 212 | 2.0 | 3.0 | 0.00 | 0.00 | 0.00 | 39 | 1006.3 |
| 20260503223831 | 47 | 215 | 3.0 | 3.0 | 0.00 | 0.00 | 0.00 | 42 | 1006.4 |
| 20260503223328 | 48 | 290 | 3.0 | 3.0 | 0.00 | 0.00 | 0.00 | 41 | 1006.3 |
| 20260503222824 | 48 | 331 | 2.0 | 4.0 | 0.00 | 0.00 | 0.00 | 39 | 1006.3 |
| 20260503222323 | 48 | 210 | 1.0 | 2.0 | 0.00 | 0.00 | 0.00 | 40 | 1006.3 |
| 20260503221820 | 46 | 281 | 2.0 | 4.0 | 0.00 | 0.00 | 0.00 | 41 | 1006.3 |
| 20260503221319 | 46 | 226 | 3.0 | 4.0 | 0.00 | 0.00 | 0.00 | 43 | 1006.4 |
| 20260503220814 | 47 | 283 | 1.0 | 1.0 | 0.00 | 0.00 | 0.00 | 43 | 1006.6 |
| 20260503220312 | 47 | 209 | 0.0 | 0.0 | 0.00 | 0.00 | 0.00 | 43 | 1006.4 |
| 20260503215808 | 47 | 210 | 0.0 | 0.0 | 0.00 | 0.00 | 0.00 | 42 | 1006.6 |
| 20260503215305 | 47 | 217 | 1.0 | 1.0 | 0.00 | 0.00 | 0.00 | 43 | 1006.6 |
| 20260503214803 | 48 | 215 | 1.0 | 2.0 | 0.00 | 0.00 | 0.00 | 41 | 1006.6 |
| 20260503214300 | 47 | 279 | 1.0 | 2.0 | 0.00 | 0.00 | 0.00 | 41 | 1006.4 |
| 20260503213758 | 48 | 209 | 0.0 | 0.0 | 0.00 | 0.00 | 0.00 | 42 | 1006.4 |
| 20260503213255 | 47 | 294 | 0.0 | 0.0 | 0.00 | 0.00 | 0.00 | 41 | 1006.2 |
| 20260503212752 | 47 | 266 | 2.0 | 4.0 | 0.00 | 0.00 | 0.00 | 41 | 1006.3 |
| 20260503212249 | 47 | 221 | 0.0 | 0.0 | 0.00 | 0.00 | 0.00 | 42 | 1006.4 |
| 20260503211747 | 47 | 251 | 1.0 | 1.0 | 0.00 | 0.00 | 0.00 | 42 | 1006.6 |
| 20260503211243 | 48 | 231 | 1.0 | 2.0 | 0.00 | 0.00 | 0.00 | 41 | 1006.2 |
| 20260503210738 | 47 | 215 | 1.0 | 2.0 | 0.00 | 0.00 | 0.00 | 40 | 1006.2 |
| 20260503210236 | 46 | 223 | 2.0 | 3.0 | 0.00 | 0.00 | 0.00 | 41 | 1006.3 |
| 20260503205731 | 47 | 200 | 2.0 | 4.0 | 0.00 | 0.00 | 0.00 | 41 | 1006.4 |
| 20260503205228 | 47 | 224 | 2.0 | 3.0 | 0.00 | 0.00 | 0.00 | 42 | 1006.6 |
| 20260503204724 | 47 | 223 | 0.0 | 0.0 | 0.00 | 0.00 | 0.00 | 43 | 1006.3 |
| 20260503204222 | 46 | 211 | 0.0 | 0.0 | 0.00 | 0.00 | 0.00 | 43 | 1006.3 |
| 20260503203719 | 46 | 275 | 0.0 | 1.0 | 0.00 | 0.00 | 0.00 | 43 | 1006.6 |
| 20260503203216 | 46 | 18 | 2.0 | 2.0 | 0.00 | 0.00 | 0.00 | 42 | 1006.3 |
| 20260503202714 | 47 | 210 | 0.0 | 0.0 | 0.00 | 0.00 | 0.00 | 44 | 1006.2 |
| 20260503202212 | 47 | 241 | 2.0 | 3.0 | 0.00 | 0.00 | 0.00 | 41 | 1006.3 |
| 20260503201709 | 47 | 214 | 2.0 | 3.0 | 0.00 | 0.00 | 0.00 | 42 | 1006.6 |
| 20260503201206 | 47 | 220 | 1.0 | 2.0 | 0.00 | 0.00 | 0.00 | 40 | 1006.4 |
| 20260503200702 | 47 | 265 | 3.0 | 3.0 | 0.00 | 0.00 | 0.00 | 43 | 1006.7 |
| 20260503200159 | 46 | 212 | 0.0 | 1.0 | 0.00 | 0.00 | 0.00 | 43 | 1006.6 |
| 20260503195656 | 46 | 320 | 4.0 | 6.0 | 0.00 | 0.00 | 0.00 | 43 | 1006.7 |
| 20260503195153 | 46 | 214 | 0.0 | 1.0 | 0.00 | 0.00 | 0.00 | 43 | 1006.7 |
| 20260503194650 | 46 | 224 | 2.0 | 2.0 | 0.00 | 0.00 | 0.00 | 44 | 1006.7 |
| 20260503194145 | 47 | 192 | 0.0 | 0.0 | 0.00 | 0.00 | 0.00 | 43 | 1006.7 |
| 20260503193642 | 47 | 203 | 2.0 | 3.0 | 0.00 | 0.00 | 0.00 | 42 | 1007.0 |
| 20260503193138 | 47 | 224 | 0.0 | 1.0 | 0.00 | 0.00 | 0.00 | 42 | 1007.0 |
| 20260503192634 | 48 | 200 | 0.0 | 0.0 | 0.00 | 0.00 | 0.00 | 42 | 1006.8 |
| 20260503192129 | 48 | 194 | 8.0 | 9.0 | 0.00 | 0.00 | 0.00 | 40 | 1006.9 |
| 20260503191626 | 48 | 3 | 4.0 | 4.0 | 0.00 | 0.00 | 0.00 | 41 | 1007.0 |
| 20260503191124 | 47 | 190 | 0.0 | 0.0 | 0.00 | 0.00 | 0.00 | 44 | 1007.1 |
| 20260503190620 | 47 | 224 | 0.0 | 1.0 | 0.00 | 0.00 | 0.00 | 42 | 1007.0 |
| 20260503190117 | 48 | 219 | 2.0 | 3.0 | 0.00 | 0.00 | 0.00 | 39 | 1006.9 |
| 20260503185614 | 47 | 292 | 0.0 | 0.0 | 0.00 | 0.00 | 0.00 | 40 | 1007.0 |
| 20260503185114 | 46 | 278 | 0.0 | 1.0 | 0.00 | 0.00 | 0.00 | 43 | 1007.1 |
| 20260503184609 | 46 | 245 | 1.0 | 2.0 | 0.00 | 0.00 | 0.00 | 41 | 1007.0 |
| 20260503184106 | 47 | 272 | 2.0 | 3.0 | 0.00 | 0.00 | 0.00 | 43 | 1007.0 |
| 20260503183603 | 47 | 218 | 0.0 | 1.0 | 0.00 | 0.00 | 0.00 | 41 | 1007.1 |
| 20260503183100 | 47 | 252 | 0.0 | 1.0 | 0.00 | 0.00 | 0.00 | 45 | 1007.2 |
| 20260503182558 | 47 | 210 | 0.0 | 0.0 | 0.00 | 0.00 | 0.00 | 42 | 1007.3 |
| 20260503182056 | 46 | 325 | 1.0 | 2.0 | 0.00 | 0.00 | 0.00 | 41 | 1007.3 |
| 20260503181553 | 46 | 175 | 3.0 | 4.0 | 0.00 | 0.00 | 0.00 | 42 | 1007.2 |
| 20260503181049 | 46 | 222 | 1.0 | 2.0 | 0.00 | 0.00 | 0.00 | 44 | 1007.2 |
| 20260503180547 | 46 | 343 | 1.0 | 1.0 | 0.00 | 0.00 | 0.00 | 42 | 1007.3 |
| 20260503180044 | 46 | 222 | 2.0 | 3.0 | 0.00 | 0.00 | 0.00 | 45 | 1007.2 |
| 20260503175541 | 46 | 226 | 2.0 | 3.0 | 0.00 | 0.00 | 0.00 | 43 | 1007.3 |
| 20260503175038 | 46 | 222 | 0.0 | 0.0 | 0.00 | 0.00 | 0.00 | 45 | 1007.4 |
| 20260503174535 | 46 | 75 | 1.0 | 1.0 | 0.00 | 0.00 | 0.00 | 47 | 1007.4 |
| 20260503174031 | 46 | 234 | 0.0 | 0.0 | 0.00 | 0.00 | 0.00 | 46 | 1007.4 |
| 20260503173526 | 45 | 203 | 0.0 | 0.0 | 0.00 | 0.00 | 0.00 | 47 | 1007.4 |
| 20260503173023 | 44 | 216 | 1.0 | 2.0 | 0.00 | 0.00 | 0.00 | 49 | 1007.4 |
| 20260503172521 | 44 | 217 | 2.0 | 3.0 | 0.00 | 0.00 | 0.00 | 47 | 1007.5 |
| 20260503172018 | 45 | 214 | 0.0 | 1.0 | 0.00 | 0.00 | 0.00 | 49 | 1007.4 |
| 20260503171514 | 45 | 241 | 1.0 | 2.0 | 0.00 | 0.00 | 0.00 | 48 | 1007.6 |
| 20260503171012 | 45 | 239 | 2.0 | 3.0 | 0.00 | 0.00 | 0.00 | 47 | 1007.7 |
| 20260503170508 | 44 | 222 | 0.0 | 0.0 | 0.00 | 0.00 | 0.00 | 49 | 1007.7 |
| 20260503150900 | 41 | 219 | 0.0 | 0.0 | 0.00 | 0.00 | 0.00 | 61 | 1008.6 |
| 20260503150356 | 41 | 266 | 1.0 | 1.0 | 0.00 | 0.00 | 0.00 | 63 | 1008.6 |
| 20260503131250 | 40 | 216 | 0.0 | 0.0 | 0.00 | 0.00 | 0.00 | 67 | 1009.3 |
| 20260503130748 | 40 | 254 | 0.0 | 0.0 | 0.00 | 0.00 | 0.00 | 70 | 1009.3 |
| 20260503130245 | 40 | 241 | 0.0 | 0.0 | 0.00 | 0.00 | 0.00 | 69 | 1009.3 |
| 20260503120211 | 36 | 208 | 0.0 | 0.0 | 0.00 | 0.00 | 0.00 | 81 | 1009.5 |
| 20260503110638 | 35 | 239 | 0.0 | 0.0 | 0.00 | 0.00 | 0.00 | 86 | 1009.2 |
| 20260503110136 | 35 | 218 | 0.0 | 0.0 | 0.00 | 0.00 | 0.00 | 87 | 1009.1 |